Location: Voyageurs National Park
(48.5020°N, 92.9292°W)
Time: 05:01:45
(UTC-05:00)

PCSat - Visible Passes

Search period start: 30 September 2016 00:00
Search period end: 10 October 2016 00:00
Orbit: 786 x 794 km, 67.1° (Epoch: 29 September)

Date Brightness Start Highest point End Pass type
(mag) Time Alt. Az. Time Alt. Az. Time Alt. Az.
30 Sep 11.4 03:48:31 22° ESE 03:49:20 23° ESE 03:53:28 10° ENE visible
30 Sep 9.6 05:29:17 27° SW 05:32:14 68° NW 05:37:41 10° NNE visible
01 Oct 11.8 03:19:01 17° E 03:19:01 17° E 03:22:03 10° ENE visible
01 Oct 9.5 04:59:46 48° SW 05:01:22 87° NW 05:06:50 10° NE visible
01 Oct 11.0 06:41:18 10° W 06:45:33 23° NNW 06:49:50 10° NNE visible
02 Oct 12.3 02:49:26 11° E 02:49:26 11° E 02:50:09 10° E visible
02 Oct 9.6 04:30:10 70° SSE 04:30:32 73° ESE 04:35:58 10° NE visible
02 Oct 10.7 06:10:55 15° W 06:14:28 27° NW 06:19:05 10° NNE visible
03 Oct 10.2 04:00:31 51° E 04:00:31 51° E 04:05:03 10° NE visible
03 Oct 10.5 05:41:15 24° W 05:43:25 33° NW 05:48:19 10° NNE visible
04 Oct 11.1 03:30:48 31° ENE 03:30:48 31° ENE 03:34:04 10° NE visible
04 Oct 10.1 05:11:32 37° WNW 05:12:25 40° NW 05:17:34 10° NNE visible
05 Oct 11.8 03:01:03 20° ENE 03:01:03 20° ENE 03:03:01 10° NE visible
05 Oct 9.9 04:41:47 50° NW 04:41:47 50° NW 04:46:46 10° NNE visible
05 Oct 11.4 06:22:48 10° WNW 06:26:10 16° NNW 06:29:33 10° NNE visible
06 Oct 12.3 02:31:15 12° ENE 02:31:15 12° ENE 02:31:51 10° ENE visible
06 Oct 10.3 04:11:59 47° N 04:11:59 47° N 04:15:58 10° NNE visible
06 Oct 11.3 05:52:42 15° WNW 05:55:01 19° NNW 05:58:50 10° NNE visible
07 Oct 11.0 03:42:08 34° NNE 03:42:08 34° NNE 03:45:08 10° NNE visible
07 Oct 11.0 05:22:52 21° NW 05:23:53 22° NNW 05:28:06 10° NNE visible
08 Oct 11.7 03:12:16 23° NE 03:12:16 23° NE 03:14:16 10° NE visible
08 Oct 10.9 04:53:00 26° NNW 04:53:00 26° NNW 04:57:21 10° NNE visible
08 Oct 11.7 06:36:18 10° NNW 06:38:11 12° NNW 06:40:05 10° N visible
09 Oct 12.2 02:42:22 15° NE 02:42:22 15° NE 02:43:21 10° NE visible
09 Oct 11.0 04:23:06 28° NNW 04:23:06 28° NNW 04:26:36 10° NNE visible
09 Oct 11.7 06:04:34 10° NW 06:06:56 13° NNW 06:09:18 10° N visible
